TimeEST,TemperatureF,Dew PointF,Humidity,Sea Level PressureIn,VisibilityMPH,Wind Direction,Wind SpeedMPH,Gust SpeedMPH,PrecipitationIn,Events,Conditions,WindDirDegrees,DateUTC
12:15 AM,27.3,25.2,92,29.99,4.0,Calm,Calm,-,N/A,,Clear,0,2013-12-02 05:15:00
12:35 AM,25.7,23.2,90,29.98,4.0,Calm,Calm,-,N/A,,Clear,0,2013-12-02 05:35:00
12:55 AM,25.7,23.2,90,29.98,4.0,Calm,Calm,-,N/A,,Clear,0,2013-12-02 05:55:00
1:15 AM,26.1,23.9,92,29.97,4.0,Calm,Calm,-,N/A,,Clear,0,2013-12-02 06:15:00
1:35 AM,25.7,23.9,93,29.97,3.0,Calm,Calm,-,N/A,,Clear,0,2013-12-02 06:35:00
1:54 AM,25.3,23.4,92,29.96,2.5,Calm,Calm,-,N/A,,Clear,0,2013-12-02 06:54:00
2:15 AM,24.8,22.8,92,29.96,3.0,Calm,Calm,-,N/A,,Clear,0,2013-12-02 07:15:00
2:34 AM,26.2,23.9,91,29.96,4.0,Calm,Calm,-,N/A,,Clear,0,2013-12-02 07:34:00
2:55 AM,26.4,24.1,91,29.96,3.0,Calm,Calm,-,N/A,,Clear,0,2013-12-02 07:55:00
3:15 AM,26.1,23.7,91,29.96,4.0,Calm,Calm,-,N/A,,Clear,0,2013-12-02 08:15:00
3:34 AM,25.5,23.2,91,29.96,4.0,Calm,Calm,-,N/A,,Scattered Clouds,0,2013-12-02 08:34:00
3:55 AM,25.7,23.7,92,29.96,4.0,Calm,Calm,-,N/A,,Mostly Cloudy,0,2013-12-02 08:55:00
4:15 AM,26.4,24.4,92,29.95,4.0,Calm,Calm,-,N/A,,Mostly Cloudy,0,2013-12-02 09:15:00
4:34 AM,26.6,24.8,93,29.95,4.0,Calm,Calm,-,N/A,,Overcast,0,2013-12-02 09:34:00
4:55 AM,27.5,25.5,92,29.95,4.0,Calm,Calm,-,N/A,,Overcast,0,2013-12-02 09:55:00
5:15 AM,27.5,25.7,93,29.95,4.0,Calm,Calm,-,N/A,,Overcast,0,2013-12-02 10:15:00
5:34 AM,27.5,25.7,93,29.95,3.0,Calm,Calm,-,N/A,,Mostly Cloudy,0,2013-12-02 10:34:00
5:55 AM,27.7,25.7,92,29.95,3.0,Calm,Calm,-,N/A,,Mostly Cloudy,0,2013-12-02 10:55:00
6:14 AM,28.0,25.7,91,29.94,3.0,Calm,Calm,-,N/A,,Overcast,0,2013-12-02 11:14:00
6:35 AM,27.0,25.0,92,29.94,3.0,Calm,Calm,-,N/A,,Overcast,0,2013-12-02 11:35:00
6:55 AM,27.7,26.1,94,29.94,3.0,Calm,Calm,-,N/A,,Overcast,0,2013-12-02 11:55:00
7:14 AM,26.8,24.4,91,29.94,3.0,Calm,Calm,-,N/A,,Overcast,0,2013-12-02 12:14:00
7:35 AM,26.6,24.8,93,29.94,3.0,Calm,Calm,-,N/A,,Overcast,0,2013-12-02 12:35:00
7:55 AM,27.5,25.7,93,29.93,3.0,Calm,Calm,-,N/A,,Overcast,0,2013-12-02 12:55:00
8:14 AM,26.6,24.8,93,29.93,2.0,Calm,Calm,-,N/A,,Mostly Cloudy,0,2013-12-02 13:14:00
8:35 AM,27.5,25.7,93,29.93,1.8,Calm,Calm,-,N/A,,Mist,0,2013-12-02 13:35:00
8:54 AM,27.1,25.5,94,29.94,2.0,Calm,Calm,-,N/A,,Overcast,0,2013-12-02 13:54:00
9:15 AM,29.7,28.2,94,29.94,0.8,East,5.8,-,N/A,,Overcast,100,2013-12-02 14:15:00
9:35 AM,30.0,28.8,95,29.94,0.2,East,5.8,-,N/A,Fog,Light Freezing Fog,90,2013-12-02 14:35:00
9:54 AM,30.2,28.9,95,29.93,0.2,East,5.8,-,N/A,Fog,Light Freezing Fog,90,2013-12-02 14:54:00
10:15 AM,30.6,29.3,95,29.93,0.2,ENE,4.6,-,N/A,Fog,Light Freezing Fog,70,2013-12-02 15:15:00
10:35 AM,30.6,29.3,95,29.93,0.2,ESE,5.8,-,N/A,Fog,Light Freezing Fog,110,2013-12-02 15:35:00
10:54 AM,31.1,30.2,96,29.93,0.2,East,4.6,-,N/A,Fog,Light Freezing Fog,100,2013-12-02 15:54:00
11:15 AM,31.1,30.2,96,29.92,0.8,East,6.9,-,N/A,,Overcast,100,2013-12-02 16:15:00
11:35 AM,32.2,31.8,99,29.92,2.0,East,3.5,-,N/A,,Overcast,90,2013-12-02 16:35:00
11:54 AM,34.2,32.9,95,29.91,3.0,East,4.6,-,N/A,,Overcast,90,2013-12-02 16:54:00
12:15 PM,33.8,31.8,92,29.91,5.0,East,4.6,-,N/A,,Mostly Cloudy,100,2013-12-02 17:15:00
12:34 PM,35.6,31.8,86,29.90,5.0,East,5.8,-,N/A,,Scattered Clouds,100,2013-12-02 17:34:00
12:55 PM,37.2,31.1,79,29.90,7.0,SE,4.6,-,N/A,,Clear,130,2013-12-02 17:55:00
1:15 PM,38.1,30.4,74,29.89,7.0,ESE,5.8,-,N/A,,Clear,120,2013-12-02 18:15:00
1:34 PM,38.3,29.7,71,29.88,10.0,ESE,5.8,-,N/A,,Clear,110,2013-12-02 18:34:00
1:55 PM,39.6,29.7,68,29.87,10.0,ESE,6.9,-,N/A,,Clear,110,2013-12-02 18:55:00
2:15 PM,39.7,28.4,64,29.86,10.0,East,6.9,-,N/A,,Clear,100,2013-12-02 19:15:00
2:34 PM,40.5,28.9,64,29.86,10.0,SE,8.1,-,N/A,,Scattered Clouds,140,2013-12-02 19:34:00
2:55 PM,39.7,27.0,60,29.86,10.0,SE,8.1,-,N/A,,Scattered Clouds,130,2013-12-02 19:55:00
3:15 PM,39.6,28.4,64,29.86,10.0,SSE,5.8,-,N/A,,Scattered Clouds,150,2013-12-02 20:15:00
3:35 PM,38.7,28.4,67,29.86,10.0,SE,4.6,-,N/A,,Scattered Clouds,140,2013-12-02 20:35:00
3:55 PM,38.3,28.4,68,29.85,10.0,ESE,5.8,-,N/A,,Scattered Clouds,110,2013-12-02 20:55:00
4:14 PM,38.3,28.4,68,29.85,10.0,ESE,3.5,-,N/A,,Scattered Clouds,110,2013-12-02 21:14:00
4:35 PM,38.5,28.4,67,29.85,10.0,SE,3.5,-,N/A,,Mostly Cloudy,130,2013-12-02 21:35:00
4:55 PM,37.8,28.8,70,29.85,10.0,East,3.5,-,N/A,,Overcast,100,2013-12-02 21:55:00
5:14 PM,37.2,28.6,71,29.85,10.0,Calm,Calm,-,N/A,,Mostly Cloudy,0,2013-12-02 22:14:00
5:35 PM,36.5,28.4,72,29.85,10.0,ESE,3.5,-,N/A,,Mostly Cloudy,120,2013-12-02 22:35:00
5:55 PM,36.7,28.4,72,29.85,10.0,ESE,4.6,-,N/A,,Overcast,110,2013-12-02 22:55:00
6:14 PM,36.7,28.9,74,29.85,10.0,Calm,Calm,-,N/A,,Overcast,0,2013-12-02 23:14:00
6:35 PM,36.5,29.1,75,29.85,10.0,Calm,Calm,-,N/A,,Overcast,0,2013-12-02 23:35:00
6:55 PM,36.3,29.1,75,29.85,10.0,ESE,3.5,-,N/A,,Overcast,120,2013-12-02 23:55:00
7:14 PM,35.6,28.8,76,29.85,10.0,Calm,Calm,-,N/A,,Overcast,0,2013-12-03 00:14:00
7:35 PM,34.5,28.4,78,29.85,10.0,ESE,3.5,-,N/A,,Mostly Cloudy,110,2013-12-03 00:35:00
7:55 PM,33.8,28.2,80,29.85,10.0,ESE,3.5,-,N/A,,Scattered Clouds,110,2013-12-03 00:55:00
8:14 PM,34.2,28.6,80,29.86,10.0,ESE,3.5,-,N/A,,Mostly Cloudy,120,2013-12-03 01:14:00
8:35 PM,34.9,28.9,79,29.86,10.0,ESE,4.6,-,N/A,,Overcast,110,2013-12-03 01:35:00
8:55 PM,34.9,28.9,79,29.86,10.0,ESE,4.6,-,N/A,,Overcast,110,2013-12-03 01:55:00
9:15 PM,35.1,28.8,78,29.86,10.0,ESE,6.9,-,N/A,,Overcast,120,2013-12-03 02:15:00
9:35 PM,34.9,28.8,78,29.87,10.0,ESE,5.8,-,N/A,,Overcast,110,2013-12-03 02:35:00
9:54 PM,34.7,28.8,79,29.86,10.0,ESE,5.8,-,N/A,,Overcast,120,2013-12-03 02:54:00
10:15 PM,34.7,29.1,80,29.86,10.0,ESE,6.9,-,N/A,,Overcast,110,2013-12-03 03:15:00
10:35 PM,34.7,29.1,80,29.86,10.0,ESE,5.8,-,N/A,,Overcast,120,2013-12-03 03:35:00
10:55 PM,34.7,28.9,79,29.85,10.0,ESE,8.1,-,N/A,,Overcast,120,2013-12-03 03:55:00
11:15 PM,34.7,28.4,78,29.86,10.0,ESE,6.9,-,N/A,,Overcast,110,2013-12-03 04:15:00
11:34 PM,34.7,28.2,77,29.85,10.0,ESE,6.9,-,N/A,,Overcast,110,2013-12-03 04:34:00
11:55 PM,34.7,27.9,76,29.85,10.0,ESE,6.9,-,N/A,,Overcast,110,2013-12-03 04:55:00